{"data":{"norad_id":82363,"epoch":"2026-09-11T04:39:26.303616Z","epoch_age_seconds":818696,"freshness":"AGED","line1":"1 82363U          26254.19405444  .00000263  00000+0  50742-3 0  9993","line2":"2 82363  66.9395 330.5022 0455373 350.3296   8.9192 13.15799285326103","mean_motion":13.15799285,"eccentricity":0.0455373,"inclination_deg":66.9395,"raan_deg":330.5022,"arg_perigee_deg":350.3296,"mean_anomaly_deg":8.9192,"bstar":0.00050742,"rev_number":32610,"period_min":109.43918395578,"perigee_km":855.68311662351,"apogee_km":1545.9324826736,"semimajor_km":7578.9447996485,"source":"CELESTRAK","updated_at":"2026-09-20T09:00:32.433031Z"}}